Carlsbad, NM

12:13 PM MST on December 15, 2017 (GMT -0700)
Cavern City

Weather History for KCNM - July, 2013

Change the Weather History Date:

Friday, July 12, 2013

  Actual Average Record
Temperature  
Mean Temperature 86 °F -  
Max Temperature 100 °F 94 °F 109 °F (2016)
Min Temperature 73 °F 68 °F 60 °F (1959)
Cooling Degree Days 22    
Growing Degree Days 36 (Base 50)    
Moisture  
Dew Point 50 °F    
Average Humidity 31    
Maximum Humidity 53    
Minimum Humidity 16    
Precipitation  
Precipitation 0.00 in - - ()
Sea Level Pressure  
Sea Level Pressure 29.79 in    
Wind  
Wind Speed 8 mph (SSE)    
Max Wind Speed 15 mph    
Max Gust Speed 24 mph    
Visibility 10 miles    
Events      
Averages and records for this station are not official NWS values.
T = Trace of Precipitation, MM = Missing Value Source: NWS Daily Summary

Daily Weather History Graph

Daily Weather History Graph

Search for Another Location

Airport or City:

Trip Planner

Search our weather history database for the weather conditions in past years. The results will help you decide how hot, cold, wet, or windy it might be!

Date:

Astronomy

Jul. 12, 2013 Rise Set
Actual Time 5:59 AM MDT 8:05 PM MDT
Civil Twilight 5:31 AM MDT 8:33 PM MDT
Nautical Twilight 4:57 AM MDT 9:07 PM MDT
Astronomical Twilight 4:20 AM MDT 9:44 PM MDT
Moon 10:01 AM MDT (7/12) 10:36 PM MDT (7/12)
Length of Visible Light 15h 02m
Length of Day
14h 06m
Waxing Crescent, 18% of the Moon is Illuminated
Jul 12
Waxing Crescent
Jul 15
First Quarter
Jul 22
Full
Jul 29
Last Quarter
Aug 6
New

Hourly Weather History & Observations

Time (MDT) Temp. Heat Index Dew Point Humidity Pressure Visibility Wind Dir Wind Speed Gust Speed Precip Events Conditions
12:53 AM 79.0 °F - 50.0 °F 36% 29.80 in 10.0 mi South 6.9 mph - N/A   Clear
1:53 AM 78.1 °F - 51.1 °F 39% 29.80 in 10.0 mi SSE 6.9 mph - N/A   Clear
2:53 AM 75.9 °F - 51.1 °F 42% 29.81 in 10.0 mi SSE 5.8 mph - N/A   Clear
3:53 AM 75.0 °F - 52.0 °F 44% 29.81 in 10.0 mi SE 6.9 mph - N/A   Clear
4:53 AM 75.0 °F - 53.1 °F 46% 29.82 in 10.0 mi SE 8.1 mph - N/A   Clear
5:53 AM 73.0 °F - 55.0 °F 53% 29.82 in 10.0 mi SSE 5.8 mph - N/A   Clear
6:53 AM 75.0 °F - 55.0 °F 50% 29.83 in 10.0 mi South 5.8 mph - N/A   Clear
7:53 AM 79.0 °F - 57.0 °F 47% 29.85 in 10.0 mi South 9.2 mph - N/A   Clear
8:53 AM 82.0 °F 82.0 °F 57.9 °F 44% 29.85 in 10.0 mi SSE 8.1 mph - N/A   Clear
9:53 AM 86.0 °F 84.9 °F 57.0 °F 37% 29.84 in 10.0 mi SE 6.9 mph - N/A   Clear
10:53 AM 90.0 °F 87.9 °F 55.0 °F 30% 29.83 in 10.0 mi SSE 10.4 mph - N/A   Clear
11:53 AM 93.0 °F - 52.0 °F 25% 29.82 in 10.0 mi SE 9.2 mph 18.4 mph N/A   Clear
12:53 PM 95.0 °F - 50.0 °F 22% 29.81 in 10.0 mi Variable 6.9 mph 17.3 mph N/A   Clear
1:53 PM 97.0 °F - 48.9 °F 19% 29.78 in 10.0 mi SSE 11.5 mph 24.2 mph N/A   Clear
2:53 PM 97.0 °F - 48.9 °F 19% 29.76 in 10.0 mi SSE 6.9 mph 16.1 mph N/A   Clear
3:53 PM 99.0 °F - 46.9 °F 17% 29.74 in 10.0 mi South 6.9 mph 21.9 mph N/A   Clear
4:53 PM 100.0 °F - 46.0 °F 16% 29.73 in 10.0 mi SE 11.5 mph 18.4 mph N/A   Clear
5:53 PM 98.1 °F - 44.1 °F 16% 29.72 in 10.0 mi ESE 12.7 mph 23.0 mph N/A   Clear
6:53 PM 97.0 °F - 43.0 °F 16% 29.73 in 10.0 mi SE 11.5 mph - N/A   Clear
7:53 PM 93.9 °F - 44.1 °F 18% 29.74 in 10.0 mi SE 15.0 mph 20.7 mph N/A   Clear
8:53 PM 90.0 °F - 44.1 °F 20% 29.75 in 10.0 mi SE 9.2 mph - N/A   Clear
9:53 PM 87.1 °F - 46.0 °F 24% 29.78 in 10.0 mi SE 6.9 mph - N/A   Clear
10:53 PM 87.1 °F - 48.9 °F 27% 29.80 in 10.0 mi SSE 15.0 mph - N/A   Clear
11:53 PM 84.0 °F - 46.9 °F 27% 29.82 in 10.0 mi South 10.4 mph - N/A   Clear